Location: Bryzozowice
(50.3667°N, 18.9667°E)
Time: 13:32:14
(UTC+00:00)

Okean-O - Pass Details

Date: 24 January 2020
Orbit: 639 x 640 km, 98.2° (Epoch: 27 February)

Event Time Altitude Azimuth Distance (km) Brightness Sun altitude
Rises 17:01:59 0° 182° (S) 2,934 6.2 -15.6°
Reaches altitude 10° 17:04:15 10° 189° (S) 2,030 5.4 -15.9°
Maximum altitude 17:08:29 43° 261° (W) 899 3.9 -16.6°
Drops below altitude 10° 17:12:45 10° 334° (NNW) 2,046 5.4 -17.3°
Sets 17:15:03 0° 341° (NNW) 2,960 6.2 -17.6°
